カタログに戻る

STARLINK-32369

運用中通信VLEO
NORAD 60917·PAYLOAD·🇺🇸 United States

打ち上げ Aug 31, 2024 から Cape Canaveral Space Force Station

Loading…

次のパス (今後24時間)

TLE

最新Source: CelesTrak SupGP

元期: Sep 14, 2026, 20:51 UTC

1 60917C 24154Q   26257.86923611 -.00045884  00000+0 -14755-2 0  2578
2 60917  53.1567 123.8951 0001241  86.1627  19.8806 15.31725858    17

AllMySatでSTARLINK-32369をリアルタイム追跡

Download on the App Store